{"data":{"norad_id":43890,"epoch":"2026-05-25T04:54:08.845920Z","epoch_age_seconds":53821,"freshness":"FRESH","line1":"1 43890U 18111Q   26145.20426905  .00000252  00000+0  25430-4 0  9998","line2":"2 43890  97.4568  13.3258 0007117 230.5249 129.5346 14.98999513404262","mean_motion":14.98999513,"eccentricity":0.0007117,"inclination_deg":97.4568,"raan_deg":13.3258,"arg_perigee_deg":230.5249,"mean_anomaly_deg":129.5346,"bstar":2.543e-5,"rev_number":40426,"period_min":96.064073904739,"perigee_km":565.04126855082,"apogee_km":574.93122718183,"semimajor_km":6948.1232478663,"source":"CELESTRAK","updated_at":"2026-05-25T13:37:55.927133Z"}}